Wind_Speed
11 11 10 8 13 16 19 22 23 20 16 16 19 18 15 14 11 14 25 22 22 21 20 21 22 21 21 19 18 18 18 17 17 15 13 12 11 11 10 9 10 13 12 13 14 14 16 17 17
15 12 14 14 21 23 19 21 18 14 12 11 18 19 14 15 8 24 23 23 21 18 18 20 19 19 19 19 17 18 16 16 16 14 12 10 10 9 8 7 9 11 10 10 13 14 13 15 16
10 9 10 9 11 21 21 20 17 14 11 6 23 16 17 18 24 20 22 20 20 17 17 18 17 17 18 17 17 16 15 14 12 11 8 7 9 7 6 5 8 9 11 12 13 13 13 13 14
12 11 12 7 18 17 15 15 14 18 18 20 25 25 27 24 22 15 20 19 20 19 17 15 15 14 15 16 13 14 13 13 10 9 7 4 7 4 5 5 6 7 7 9 12 11 10 11 12
11 14 15 18 18 14 14 10 10 16 25 30 34 37 35 33 24 15 20 18 17 17 17 15 14 14 13 13 12 11 11 12 9 8 6 6 6 4 3 4 5 7 6 8 9 11 11 9 11
12 10 19 22 16 12 16 12 9 12 15 24 17 29 29 21 15 14 16 17 16 15 15 15 14 13 12 11 11 10 10 10 9 9 5 6 7 4 2 5 4 7 7 7 8 10 10 11 9
16 18 22 17 20 21 17 15 5 13 11 16 17 21 26 24 18 15 14 14 16 16 13 13 13 13 13 12 11 10 10 10 7 7 7 5 6 4 3 4 4 7 7 8 7 9 9 11 12
15 19 18 20 16 19 19 16 4 7 17 16 11 10 23 26 20 19 16 17 15 15 15 13 12 12 11 12 10 9 9 7 6 7 6 5 3 6 5 3 4 6 7 8 7 10 11 10 11
16 20 15 15 13 22 16 8 6 6 11 11 9 8 17 22 26 22 20 17 13 13 13 12 12 12 11 10 9 8 9 6 7 5 6 6 2 3 5 4 3 4 6 9 7 8 10 13 14
16 16 14 16 12 12 9 6 8 9 10 9 9 13 15 21 24 22 17 16 13 11 11 11 10 9 9 8 8 6 6 7 9 5 7 7 2 4 2 2 2 4 3 7 9 7 9 13 15
8 16 13 10 11 8 8 8 8 1 4 4 6 8 11 12 19 18 15 11 10 9 9 8 9 8 6 5 6 6 6 8 9 6 6 10 9 5 2 1 4 5 3 1 4 8 9 12 12
15 11 7 9 7 10 10 13 12 6 7 4 4 3 8 11 13 14 13 10 5 8 8 13 11 9 6 2 5 7 6 4 8 7 9 7 3 6 3 2 4 6 6 3 1 3 7 11 10
16 13 6 5 7 8 12 8 8 11 6 8 2 5 10 12 12 15 13 9 5 4 8 8 9 8 7 5 2 5 6 4 8 9 9 6 3 4 4 6 4 6 4 6 5 4 4 8 11
17 13 11 9 12 12 5 4 3 14 10 9 4 8 12 16 14 13 10 7 7 5 3 5 6 7 7 7 5 5 8 10 10 10 9 7 5 6 4 1 4 7 4 3 6 5 5 7 7
14 12 10 9 10 11 7 7 3 6 10 8 7 11 14 13 10 7 5 5 7 6 2 6 8 5 5 5 5 5 5 6 8 8 5 5 7 5 3 4 2 3 7 8 9 6 4 4 9
15 9 9 11 11 12 9 10 8 6 8 8 10 13 13 12 9 5 3 5 9 9 2 2 3 4 4 3 4 6 4 4 4 4 4 4 7 2 2 5 3 1 4 3 5 5 3 2 6
13 19 7 17 17 7 14 12 14 9 7 7 9 11 13 13 11 11 8 8 12 12 5 4 4 6 5 4 4 4 2 4 5 4 5 4 2 4 2 6 3 4 8 8 5 8 7 3 5
8 12 16 15 13 15 13 9 16 14 10 7 9 10 12 14 14 13 13 12 15 11 5 4 5 9 6 5 2 4 2 6 4 8 6 4 2 2 3 7 2 1 3 6 6 10 8 8 6
6 16 11 15 16 19 17 8 11 15 13 11 9 10 12 13 13 14 15 15 15 12 3 6 6 9 7 4 4 3 2 8 5 9 7 2 3 3 2 6 2 3 5 7 9 7 5 5 8
12 14 12 11 16 16 20 11 11 16 19 11 7 11 11 13 17 17 16 11 8 4 7 6 6 6 9 7 5 2 1 4 5 7 5 4 6 4 5 5 2 3 2 3 4 5 3 4 5
17 14 9 10 3 15 23 17 18 14 24 24 19 11 12 10 8 14 15 6 7 6 3 5 5 7 10 10 8 4 2 0 4 6 4 5 3 3 4 5 2 2 3 2 2 2 2 3 3
28 17 10 4 10 17 17 17 22 20 26 33 28 22 19 15 8 7 11 6 8 7 3 3 5 6 9 10 8 6 5 4 3 4 3 1 1 3 3 2 2 0 2 2 3 3 2 1 3
24 26 17 14 15 18 26 11 19 28 30 36 32 26 21 21 12 6 8 5 2 2 4 2 6 6 6 6 7 8 7 6 6 4 3 7 3 2 2 2 1 1 0 1 3 4 1 1 5
8 16 15 17 18 7 30 24 16 30 22 27 31 26 19 20 12 7 2 5 7 7 3 3 5 8 4 4 3 5 6 7 6 3 5 3 2 3 3 1 1 2 2 1 2 4 4 4 4
5 15 8 5 9 9 8 16 23 20 24 15 18 26 20 22 15 11 7 9 10 8 0 4 1 6 4 1 3 5 6 7 5 4 6 4 3 4 2 1 1 1 3 3 3 3 6 7 5
16 8 5 4 2 5 5 8 12 7 18 17 13 27 24 23 19 15 8 8 8 12 10 6 2 4 2 2 3 4 6 6 5 5 5 3 3 5 5 4 2 1 2 4 4 4 3 6 7
21 22 15 12 11 3 6 8 7 9 20 20 17 25 29 28 23 18 11 11 9 13 9 9 4 6 9 7 4 3 3 4 4 6 6 5 4 6 7 3 2 1 2 2 3 5 3 3 7
21 14 16 5 2 4 8 8 7 14 21 26 24 28 24 33 28 22 19 14 11 13 9 15 8 9 10 8 4 2 3 3 4 5 6 5 4 7 7 5 2 2 2 2 2 2 2 3 5
26 20 15 14 8 6 3 8 19 17 24 25 20 24 27 30 30 27 24 20 11 8 12 10 10 11 9 6 6 4 5 6 3 5 6 5 5 6 5 3 3 3 4 5 5 6 6 7 8
25 17 15 17 11 5 3 16 10 21 20 21 25 16 29 34 21 34 32 27 30 16 23 6 14 12 9 6 2 3 3 4 5 11 6 7 5 5 4 4 5 5 6 7 8 10 13 14 18
Wind_Direction
80 75 99 94 86 96 103 110 113 117 117 107 135 136 140 131 118 130 129 130 129 128 129 128 133 136 135 133 129 127 126 126 117 115 114 108 110 97 93 90 87 81 79 78 75 83 82 84 95
84 78 87 87 108 103 107 108 109 106 114 115 153 144 133 130 106 126 125 128 128 129 128 130 132 136 136 136 135 131 129 124 117 115 113 112 108 92 84 81 70 72 68 88 89 96 100 90 94
67 77 84 103 109 114 122 120 105 95 81 109 144 165 138 132 133 121 119 128 130 130 131 128 131 137 140 137 137 133 129 122 111 108 109 114 104 101 80 55 68 62 68 88 107 104 114 99 93
78 83 64 95 130 126 112 136 110 99 113 108 123 133 121 118 125 126 131 136 134 135 128 126 127 136 136 132 137 132 129 121 118 113 108 107 87 72 68 43 51 65 75 88 113 118 121 122 104
96 99 128 112 132 114 134 123 95 91 126 120 123 126 127 134 149 133 132 138 136 133 131 132 133 132 130 129 134 130 131 122 125 119 123 110 87 94 85 70 52 69 85 105 108 117 132 133 124
93 78 117 120 142 124 155 163 124 83 114 151 148 136 130 136 135 133 138 140 133 130 129 136 134 134 129 127 131 131 126 122 125 123 114 99 100 76 81 100 79 73 84 102 120 124 134 141 137
88 114 106 120 135 143 163 179 69 67 88 137 165 154 140 135 139 152 157 144 135 136 134 133 139 133 134 130 132 128 123 119 125 116 114 108 100 105 87 90 104 95 86 105 125 126 139 150 145
105 115 118 102 126 156 166 176 94 41 99 115 121 163 154 155 153 162 159 152 145 136 135 139 134 130 133 131 127 125 116 125 123 110 104 88 95 100 70 101 101 107 103 97 109 129 151 156 151
130 129 124 134 130 154 161 155 136 56 130 107 111 135 167 152 160 162 164 143 134 137 137 139 137 138 140 131 129 129 117 126 106 109 116 111 121 78 63 86 91 112 119 112 108 124 143 162 156
136 137 123 141 142 164 180 237 167 141 125 135 124 162 155 139 128 142 146 136 143 147 146 141 140 139 134 137 134 130 127 120 101 112 105 113 107 44 49 87 115 137 121 128 121 134 130 140 157
98 120 129 114 123 152 185 192 181 167 97 40 33 160 148 136 129 131 133 137 143 156 152 144 138 141 135 130 148 139 129 103 110 97 96 75 82 58 81 98 102 101 48 20 119 153 147 148 156
117 115 108 125 100 140 150 158 197 291 5 25 9 165 155 149 133 131 125 127 126 172 140 159 142 139 130 149 168 116 113 112 109 110 83 96 63 57 53 44 93 70 77 96 141 166 165 154 154
133 125 115 108 128 130 138 176 220 230 243 189 268 190 169 146 130 123 119 110 83 108 167 161 138 143 123 106 124 120 132 184 113 106 108 101 84 71 55 70 70 88 150 58 136 152 195 165 165
137 136 137 136 150 147 174 240 226 207 202 203 239 185 167 145 129 121 118 85 32 41 146 150 154 140 123 118 132 161 161 142 120 112 104 92 83 64 72 114 117 90 122 165 132 120 161 189 187
154 141 163 147 153 176 242 199 269 188 210 228 214 184 166 136 114 100 73 43 349 354 236 159 145 127 140 145 164 149 157 108 106 65 68 75 66 61 85 108 59 98 96 85 111 74 141 162 195
172 164 186 160 164 173 225 189 222 220 223 215 180 171 149 139 148 192 335 298 293 316 260 184 119 156 188 191 165 158 136 123 123 81 90 69 94 64 126 81 15 127 120 118 112 55 69 285 232
161 170 202 205 189 195 206 184 215 231 217 186 166 151 145 147 179 201 239 271 273 299 300 172 208 203 204 186 184 188 147 157 90 118 77 53 111 102 50 62 40 57 76 77 75 66 41 33 237
175 156 189 213 213 199 202 226 213 232 229 185 165 152 158 167 181 209 231 259 265 282 302 245 188 233 207 188 188 200 219 187 122 89 110 100 122 118 69 44 48 83 40 62 70 81 57 59 76
201 155 188 218 206 209 203 240 226 225 231 216 191 176 179 188 188 218 236 258 260 255 268 264 215 226 239 198 185 223 112 106 121 130 144 178 161 176 71 72 58 291 48 43 40 86 93 77 73
208 173 186 182 186 223 207 203 213 225 237 240 234 206 196 194 202 218 232 261 217 207 289 279 231 222 228 227 220 230 246 176 110 166 112 142 140 154 71 97 80 334 340 53 38 65 131 154 125
226 235 180 190 101 208 207 191 205 235 225 236 245 245 213 222 214 213 230 256 189 162 243 304 277 235 223 222 226 244 279 175 176 144 140 152 126 141 112 58 76 281 321 315 333 49 133 193 182
254 227 218 303 265 248 229 201 208 222 223 223 230 232 226 230 245 234 229 187 121 139 162 304 316 255 234 239 243 242 225 194 194 203 194 228 60 5 46 46 109 178 3 308 289 294 41 107 233
264 232 234 220 180 223 234 243 235 202 220 221 228 224 220 234 251 268 223 188 236 52 78 343 334 290 248 236 236 236 233 210 227 210 232 199 104 133 178 325 58 167 96 307 276 262 220 154 167
297 206 217 212 199 238 227 214 227 212 239 223 222 223 216 218 239 257 224 194 241 271 335 6 304 313 269 244 211 218 224 221 234 231 231 179 198 149 140 140 50 30 356 311 292 263 220 218 206
185 172 195 204 191 214 283 222 249 266 231 207 230 222 225 217 226 236 225 185 216 211 223 31 12 297 283 240 152 185 218 224 233 208 208 178 206 163 155 211 359 38 12 1 355 292 243 236 238
235 243 198 196 207 283 212 236 272 257 219 227 229 221 229 220 224 229 212 209 188 240 246 265 159 228 190 165 143 179 220 229 216 220 227 206 186 188 200 184 176 349 15 13 15 5 265 233 247
239 238 241 271 278 265 236 229 215 202 195 213 208 204 216 221 228 224 226 246 205 248 239 237 193 171 141 150 171 170 217 234 224 223 236 257 249 202 180 150 140 285 338 330 18 38 10 264 243
244 247 235 235 186 241 235 241 213 202 185 177 191 202 214 214 220 226 228 240 249 245 237 247 217 183 172 172 179 157 209 230 241 220 218 222 230 160 174 207 218 249 273 303 345 352 329 321 290
219 232 241 245 244 182 194 245 264 230 189 187 195 201 204 195 209 212 215 225 223 201 217 229 209 196 174 192 230 258 344 298 226 217 221 219 200 180 180 212 250 257 266 268 284 296 293 280 261
210 226 229 232 240 238 219 288 261 208 188 192 205 219 211 189 166 199 210 219 223 226 214 148 203 179 185 184 236 293 292 308 239 194 209 247 219 201 214 233 248 256 256 279 291 285 284 278 276
Height
3177 3177 3177 3176 3179 3177 3175 3176 3176 3176 3177 3178 3179 3180 3181 3180 3181 3185 3184 3188 3191 3193 3196 3197 3199 3200 3201 3202 3203 3204 3205 3206 3206 3207 3207 3209 3210 3211 3210 3209 3209 3208 3208 3207 3207 3206 3206 3205 3205
3179 3182 3181 3178 3180 3179 3180 3179 3179 3179 3178 3179 3179 3181 3182 3183 3183 3186 3187 3190 3193 3197 3199 3199 3201 3203 3204 3204 3205 3205 3207 3209 3208 3209 3210 3211 3211 3212 3212 3212 3211 3211 3209 3210 3209 3209 3210 3209 3209
3179 3181 3185 3183 3182 3179 3182 3182 3180 3182 3181 3179 3177 3182 3185 3185 3188 3189 3191 3194 3197 3200 3202 3202 3204 3205 3205 3206 3207 3207 3210 3212 3212 3213 3213 3213 3213 3214 3213 3213 3213 3212 3212 3211 3211 3212 3212 3213 3213
3180 3181 3186 3185 3184 3185 3182 3185 3184 3184 3184 3182 3180 3182 3187 3189 3194 3194 3195 3197 3199 3201 3203 3204 3206 3208 3209 3209 3210 3210 3212 3213 3214 3215 3216 3216 3215 3217 3215 3215 3215 3214 3214 3214 3213 3214 3213 3214 3215
3186 3184 3185 3187 3189 3188 3188 3188 3188 3188 3187 3187 3186 3185 3186 3190 3195 3196 3197 3200 3202 3203 3204 3205 3207 3209 3211 3211 3213 3214 3214 3214 3216 3217 3218 3218 3218 3218 3217 3216 3216 3216 3216 3216 3215 3215 3216 3215 3218
3187 3185 3187 3185 3190 3191 3191 3192 3192 3191 3191 3190 3191 3189 3190 3195 3198 3197 3200 3202 3204 3205 3206 3208 3209 3210 3211 3213 3215 3216 3216 3216 3217 3217 3220 3219 3217 3219 3218 3217 3218 3217 3217 3217 3216 3216 3216 3217 3219
3188 3187 3187 3187 3190 3192 3192 3193 3193 3193 3192 3191 3192 3192 3193 3195 3198 3200 3202 3203 3205 3206 3208 3209 3211 3211 3213 3214 3216 3217 3217 3218 3218 3219 3219 3219 3218 3218 3219 3218 3218 3218 3218 3218 3218 3217 3217 3218 3220
3191 3190 3191 3191 3191 3195 3194 3194 3197 3196 3195 3194 3196 3194 3193 3195 3200 3201 3203 3204 3206 3207 3209 3211 3212 3212 3214 3215 3217 3217 3218 3219 3218 3220 3220 3220 3220 3219 3219 3218 3219 3219 3219 3219 3219 3218 3218 3218 3221
3195 3194 3193 3193 3192 3195 3196 3196 3199 3198 3195 3196 3196 3196 3195 3197 3201 3204 3204 3204 3206 3208 3209 3211 3213 3214 3216 3217 3218 3219 3220 3220 3220 3221 3221 3221 3220 3220 3220 3219 3219 3219 3219 3219 3220 3220 3218 3219 3220
3195 3196 3197 3197 3197 3200 3199 3200 3197 3198 3196 3196 3196 3197 3197 3199 3202 3205 3206 3207 3209 3211 3212 3213 3215 3216 3217 3218 3218 3220 3221 3220 3221 3222 3221 3221 3220 3220 3219 3220 3220 3220 3220 3220 3220 3220 3219 3220 3221
3199 3199 3200 3201 3202 3202 3200 3199 3199 3198 3197 3197 3196 3195 3196 3198 3202 3205 3206 3208 3210 3212 3213 3215 3216 3218 3219 3219 3220 3221 3222 3220 3223 3223 3223 3221 3222 3222 3221 3221 3222 3222 3221 3221 3221 3222 3221 3221 3222
3201 3201 3203 3204 3203 3203 3202 3201 3198 3198 3198 3198 3199 3198 3198 3199 3202 3206 3207 3210 3213 3214 3215 3216 3218 3218 3220 3220 3221 3221 3221 3223 3224 3224 3224 3224 3224 3223 3222 3222 3223 3223 3222 3222 3222 3222 3222 3222 3224
3203 3206 3207 3206 3205 3205 3205 3203 3201 3199 3200 3201 3201 3201 3200 3201 3204 3206 3209 3212 3214 3215 3217 3217 3218 3220 3219 3221 3221 3222 3223 3225 3226 3227 3225 3224 3224 3224 3224 3223 3224 3224 3223 3223 3222 3222 3223 3223 3223
3206 3206 3208 3209 3207 3207 3206 3206 3205 3203 3202 3202 3203 3202 3203 3205 3205 3206 3209 3212 3213 3215 3216 3216 3217 3219 3220 3221 3222 3224 3225 3225 3224 3225 3225 3227 3225 3224 3225 3224 3224 3224 3223 3223 3222 3222 3223 3224 3224
3207 3208 3209 3210 3210 3208 3206 3205 3204 3201 3201 3202 3203 3204 3204 3204 3205 3206 3209 3210 3214 3216 3217 3218 3219 3219 3221 3222 3223 3225 3227 3226 3225 3225 3227 3227 3226 3227 3226 3225 3224 3224 3222 3222 3222 3222 3223 3223 3223
3205 3206 3209 3210 3209 3208 3207 3205 3204 3203 3202 3202 3201 3202 3202 3203 3206 3207 3209 3211 3214 3217 3218 3217 3217 3219 3222 3223 3224 3226 3227 3225 3226 3228 3228 3226 3228 3228 3227 3225 3225 3224 3223 3221 3221 3222 3223 3222 3221
3204 3204 3208 3208 3207 3206 3207 3207 3207 3206 3204 3203 3202 3201 3201 3203 3205 3208 3211 3214 3215 3216 3219 3218 3219 3220 3222 3223 3225 3226 3225 3225 3228 3228 3228 3230 3228 3226 3225 3225 3225 3224 3223 3221 3221 3222 3221 3219 3218
3201 3201 3204 3203 3204 3204 3207 3206 3207 3207 3207 3205 3203 3202 3202 3203 3205 3208 3211 3214 3214 3216 3217 3219 3219 3220 3221 3223 3225 3224 3225 3227 3228 3227 3228 3229 3228 3227 3226 3226 3225 3224 3224 3223 3222 3221 3221 3220 3218
3200 3198 3198 3196 3200 3203 3206 3205 3202 3206 3207 3207 3206 3205 3204 3205 3206 3208 3210 3211 3212 3215 3216 3218 3219 3220 3220 3221 3224 3224 3225 3226 3226 3227 3227 3228 3230 3228 3226 3226 3225 3225 3223 3222 3222 3223 3224 3222 3219
3197 3196 3196 3198 3200 3203 3204 3202 3202 3202 3203 3207 3207 3206 3206 3206 3207 3208 3209 3210 3211 3213 3215 3217 3218 3219 3221 3221 3222 3224 3225 3226 3226 3225 3225 3227 3230 3228 3227 3227 3225 3225 3224 3223 3223 3223 3224 3225 3223
3192 3196 3195 3199 3202 3204 3204 3201 3200 3201 3203 3205 3206 3207 3207 3206 3207 3209 3209 3210 3212 3212 3214 3216 3218 3219 3220 3221 3221 3222 3224 3224 3225 3224 3225 3227 3227 3226 3225 3226 3226 3226 3224 3223 3223 3224 3224 3224 3225
3189 3191 3193 3195 3200 3205 3207 3199 3194 3197 3194 3192 3197 3201 3204 3206 3207 3208 3207 3210 3212 3212 3214 3216 3217 3218 3219 3219 3220 3222 3224 3223 3224 3224 3224 3225 3225 3223 3224 3226 3226 3226 3225 3223 3224 3224 3224 3224 3224
3184 3187 3189 3188 3197 3197 3197 3197 3190 3192 3187 3189 3190 3193 3199 3203 3205 3207 3208 3209 3211 3213 3214 3216 3217 3218 3218 3219 3219 3220 3222 3222 3223 3223 3224 3223 3224 3224 3227 3226 3227 3226 3225 3224 3224 3224 3224 3223 3223
3180 3183 3187 3189 3191 3194 3191 3189 3183 3180 3176 3177 3184 3189 3194 3199 3204 3207 3208 3208 3209 3212 3214 3215 3217 3217 3217 3218 3219 3219 3220 3221 3222 3223 3224 3224 3224 3226 3225 3226 3226 3226 3225 3224 3223 3222 3222 3222 3223
3177 3181 3184 3188 3191 3184 3181 3181 3175 3173 3174 3180 3184 3187 3192 3198 3202 3204 3205 3206 3206 3209 3213 3215 3215 3217 3216 3217 3219 3220 3220 3220 3220 3222 3223 3224 3224 3224 3225 3226 3227 3227 3225 3224 3222 3221 3220 3221 3221
3174 3175 3177 3183 3182 3180 3179 3178 3173 3170 3175 3181 3184 3186 3191 3196 3201 3203 3205 3205 3206 3207 3211 3214 3215 3216 3217 3217 3217 3219 3219 3219 3219 3220 3221 3222 3224 3225 3226 3227 3227 3226 3226 3224 3223 3221 3220 3221 3221
3170 3171 3175 3175 3176 3178 3176 3174 3172 3170 3173 3178 3179 3182 3184 3190 3198 3203 3205 3206 3205 3205 3208 3212 3214 3215 3216 3216 3216 3217 3218 3218 3218 3218 3219 3220 3222 3224 3226 3226 3225 3226 3225 3226 3224 3222 3221 3221 3221
3167 3168 3170 3171 3175 3177 3171 3170 3168 3168 3170 3173 3175 3180 3187 3193 3198 3201 3203 3206 3206 3205 3208 3213 3215 3215 3215 3216 3216 3216 3217 3217 3218 3218 3218 3219 3221 3223 3223 3224 3224 3225 3226 3226 3225 3223 3222 3221 3221
3163 3163 3165 3168 3170 3170 3173 3167 3165 3166 3168 3171 3175 3181 3183 3189 3190 3195 3199 3201 3204 3206 3211 3215 3217 3218 3215 3214 3215 3215 3215 3215 3217 3218 3218 3218 3219 3220 3221 3222 3223 3224 3224 3225 3223 3222 3222 3221 3219
3155 3156 3159 3162 3165 3165 3165 3163 3159 3161 3164 3169 3172 3176 3179 3185 3184 3188 3189 3195 3194 3202 3203 3200 3215 3217 3217 3214 3214 3214 3214 3214 3215 3215 3217 3218 3217 3218 3219 3219 3221 3221 3222 3222 3221 3220 3219 3218 3216